Dewpoint
54 54 54 53 54 54 54 54 54 55 55 55 56 57 57 57 57 58 58 58 58 58 58 58 58 58 58 58 58 59 58 56 54 49 44 44 50 61 66 69 68 69 77 64 66 56 58 58 55 55 58 57 53 52 53 49 48 51 53 56 47 45 45 45 45 44 44 33 33 35 39 40 41 45 47 48 48 51 53 52 56 58 59 61 62 64 64 64
54 54 53 53 54 54 54 55 55 55 55 56 56 56 56 56 57 57 57 57 57 57 58 58 58 58 58 58 58 58 58 56 51 45 42 46 62 64 69 72 72 71 73 61 63 56 54 55 54 54 55 55 52 49 51 48 47 49 53 51 43 44 43 44 45 46 45 38 36 36 39 38 35 40 43 43 45 48 48 51 54 57 59 61 62 63 63 64
53 53 53 53 53 54 55 55 55 55 55 55 55 55 56 56 57 57 57 57 57 57 57 57 58 58 58 57 58 58 57 53 51 47 45 61 63 64 68 71 73 75 62 57 54 54 53 52 53 53 54 53 50 48 48 47 45 48 49 50 47 46 43 42 46 45 42 42 38 37 36 36 36 37 40 41 43 46 46 53 58 59 59 60 61 62 63 63
53 53 53 53 54 54 54 55 55 55 55 55 55 56 56 56 56 56 56 56 56 57 57 57 57 58 57 58 58 58 55 53 42 37 49 72 68 65 70 72 73 75 61 51 45 46 53 52 52 52 53 51 49 47 44 43 41 46 45 45 46 44 44 43 43 45 42 42 37 38 36 35 35 37 40 40 45 45 48 56 58 59 59 60 60 61 62 62
53 52 54 54 54 54 54 54 55 55 55 55 55 56 56 56 55 55 56 56 57 57 57 57 57 58 58 58 58 56 52 34 30 39 45 71 71 70 70 72 74 70 60 48 44 41 43 48 47 49 50 48 47 43 39 37 37 44 41 42 42 41 42 42 37 47 44 44 43 34 36 35 34 35 37 39 44 43 50 56 58 59 60 60 60 61 62 61
52 53 53 53 54 54 54 54 54 55 55 55 55 55 56 56 56 56 56 56 56 56 57 57 58 58 58 58 57 56 40 17 33 42 72 70 68 67 70 72 74 63 55 50 46 42 40 41 44 43 46 42 38 37 35 33 37 34 41 39 38 39 36 39 37 38 44 42 43 40 37 35 32 31 36 36 46 43 53 58 58 59 60 60 61 61 61 61
51 52 53 53 53 54 54 54 54 54 55 55 55 55 55 55 54 55 55 55 55 56 57 57 58 57 58 58 56 53 41 22 25 42 69 74 71 69 72 73 76 60 51 48 46 45 43 41 43 41 38 37 36 34 34 32 32 33 31 40 40 36 36 37 38 38 42 42 42 41 39 36 34 32 37 39 39 49 57 58 59 60 60 60 60 61 61 62
52 52 53 53 53 53 54 54 54 54 55 54 55 55 55 55 55 55 55 55 55 56 57 57 58 57 58 56 50 45 46 40 34 27 69 73 72 72 70 66 61 54 49 46 45 44 45 43 42 41 36 33 34 34 34 32 31 30 29 29 35 33 36 37 37 35 40 40 43 43 40 39 33 34 37 42 46 55 57 59 59 60 60 60 60 61 61 63
52 53 53 53 53 53 54 54 54 54 54 55 55 55 55 55 55 55 55 55 56 56 57 57 58 58 59 57 44 26 16 18 28 33 68 67 61 68 58 53 52 48 47 47 45 44 45 44 42 39 33 31 31 31 33 31 28 29 27 29 28 34 34 35 36 35 35 37 40 42 38 36 36 37 36 41 50 54 57 59 59 60 60 60 60 61 62 63
52 52 52 53 53 53 54 54 54 54 54 55 55 54 54 54 54 55 55 55 56 56 57 57 58 58 57 55 51 34 28 22 23 48 53 55 54 56 56 46 47 44 43 44 45 45 44 43 40 38 34 30 28 29 32 32 31 28 26 24 23 24 30 33 33 34 34 33 39 38 37 35 37 37 34 42 50 53 56 58 58 59 59 59 59 60 61 62
52 52 52 53 53 53 53 54 54 54 54 54 54 54 54 54 55 55 55 55 55 56 56 57 58 58 56 53 44 25 21 19 41 40 47 42 48 49 51 48 43 40 38 38 41 43 44 42 38 34 30 27 26 25 27 28 30 30 27 24 22 21 23 32 32 33 33 31 40 38 39 38 37 36 36 42 49 51 54 56 56 57 58 58 59 60 62 62
51 51 52 53 53 53 53 54 54 54 54 54 54 54 54 55 54 54 54 55 55 56 57 57 59 57 56 52 48 35 30 28 29 34 40 40 46 47 46 39 39 36 34 32 35 39 41 40 37 33 27 26 23 24 24 27 27 26 24 21 20 20 19 27 28 28 31 30 38 38 39 38 37 33 37 38 47 49 53 54 55 56 58 57 58 60 61 60
51 52 52 52 52 52 53 53 53 54 53 53 53 54 54 54 53 53 54 55 55 56 57 58 59 58 55 49 47 46 38 31 27 26 26 37 40 38 37 36 35 37 33 29 30 33 35 34 32 29 29 28 24 23 25 27 25 24 23 21 20 19 19 25 28 27 28 29 35 39 37 39 36 36 35 35 43 47 50 52 53 54 55 56 58 59 60 59
52 52 52 52 53 53 53 53 54 53 53 53 53 53 53 52 53 54 54 55 56 57 58 59 58 57 54 44 37 30 34 35 32 30 29 30 26 31 33 31 31 36 36 32 32 33 32 30 29 28 26 22 21 20 17 17 18 18 19 19 17 19 21 22 25 28 27 28 29 37 37 38 40 38 36 36 43 46 48 50 52 53 54 54 56 59 59 58
52 52 53 53 53 53 53 53 53 53 53 53 53 52 52 52 53 54 55 56 57 58 59 60 58 56 53 48 47 45 62 47 31 27 28 28 26 26 29 28 26 25 28 36 35 34 32 30 28 24 19 19 16 14 14 14 15 16 18 18 18 18 19 20 23 26 25 27 30 32 39 38 38 38 37 37 38 44 46 48 50 51 53 52 55 57 57 56
52 53 53 53 53 53 53 53 53 53 53 52 51 51 52 53 54 55 56 57 57 59 59 59 57 56 49 44 44 56 51 48 43 39 35 32 29 25 26 27 26 24 24 24 28 29 31 30 25 21 18 16 14 13 14 16 15 15 16 20 18 17 18 19 22 28 28 30 32 31 37 39 39 41 39 38 37 42 43 45 46 50 51 51 53 56 56 56
52 53 53 53 53 53 53 52 52 53 52 51 51 51 52 54 55 57 57 57 57 58 58 52 53 55 43 43 47 38 33 39 41 39 35 31 28 26 25 24 23 23 23 24 25 25 26 28 29 27 19 15 14 14 17 15 17 17 16 17 18 17 19 18 27 28 28 29 30 32 38 38 40 41 40 39 38 40 39 41 43 47 48 50 51 54 55 55
52 52 52 53 53 53 53 52 52 52 51 50 51 50 50 54 57 55 56 56 52 55 55 55 49 44 43 47 42 39 33 29 34 33 29 28 27 26 25 23 20 19 22 23 25 23 24 24 25 23 22 17 14 14 15 15 15 16 19 18 16 18 18 19 25 28 28 31 31 31 34 38 39 39 41 41 40 39 40 40 42 45 46 48 49 52 54 55
52 52 52 52 53 53 52 52 52 51 51 51 50 51 53 56 53 48 48 49 52 53 47 47 45 35 16 37 44 43 38 32 28 31 29 28 27 27 25 24 21 22 23 23 23 23 23 23 24 24 20 19 15 13 13 15 17 16 16 16 16 17 18 19 22 28 27 30 30 31 31 36 37 37 39 41 41 40 42 41 42 43 47 47 48 52 54 55
52 52 52 52 52 52 53 52 51 51 50 48 46 46 49 43 43 52 48 49 48 45 44 44 45 35 26 25 29 33 33 35 27 29 28 26 26 24 22 21 22 26 25 23 22 22 24 21 21 20 20 18 17 15 14 15 17 17 17 16 15 17 18 19 23 28 28 30 30 31 32 32 37 37 40 42 42 42 42 42 42 43 46 45 46 52 54 55
52 51 52 52 52 52 52 52 51 51 50 48 47 45 34 28 22 20 23 24 25 31 35 35 37 42 37 35 37 38 36 30 27 28 28 27 24 21 20 23 24 25 25 23 21 22 22 21 20 20 19 17 16 15 14 13 15 17 17 17 16 17 17 19 23 29 29 29 30 33 33 34 38 39 40 42 42 42 43 43 43 43 46 46 46 49 53 55
51 52 52 52 52 52 52 51 51 50 50 49 47 44 43 26 26 25 25 23 23 22 19 16 16 17 28 38 40 40 37 33 28 26 28 27 25 21 19 21 23 25 25 23 22 20 20 19 19 19 18 16 13 12 13 12 12 14 15 17 18 18 18 20 23 29 30 29 33 33 33 35 37 39 40 42 42 43 44 46 45 44 46 47 47 47 52 54
51 51 52 52 52 52 51 51 49 49 49 48 36 24 18 26 26 28 25 23 21 21 21 20 17 15 12 14 19 24 25 26 27 25 26 27 23 21 19 19 22 24 23 21 19 19 18 18 18 17 16 15 12 11 11 12 13 13 14 17 17 17 16 19 23 23 27 29 31 35 32 36 36 41 41 42 42 49 47 45 46 46 46 47 47 47 49 54
51 51 52 52 52 51 51 49 49 47 39 34 32 28 24 24 22 24 23 20 18 18 14 14 17 16 12 10 11 12 16 20 24 24 28 24 21 21 19 20 20 21 20 20 19 18 17 16 17 16 15 14 12 11 10 10 12 14 15 16 15 15 16 18 24 23 26 29 30 34 34 36 36 38 41 42 44 44 45 46 46 48 48 48 48 48 49 52
51 51 52 52 51 51 49 49 45 36 39 37 29 30 28 26 26 28 22 22 21 20 19 14 13 14 14 12 11 9 10 15 20 23 25 24 21 18 18 18 20 19 18 19 19 18 16 15 16 15 13 12 11 9 9 7 8 11 15 16 15 15 16 18 18 18 26 28 29 32 33 35 37 40 40 42 44 44 45 45 45 49 49 49 48 49 49 51
52 52 52 52 52 51 49 39 36 41 40 37 28 31 31 30 29 31 25 25 21 21 19 16 13 11 13 10 9 9 11 10 15 19 21 25 27 19 18 15 18 18 19 18 18 19 16 14 11 12 11 9 9 8 6 5 4 7 11 15 15 15 16 16 16 18 35 30 30 29 32 35 38 38 42 42 43 44 45 45 45 48 50 49 49 49 50 49
53 52 52 52 52 50 43 33 39 43 36 28 32 33 33 34 37 31 27 24 24 25 19 19 13 12 12 10 8 8 5 7 12 16 17 27 24 21 15 14 16 18 20 20 22 16 16 13 10 9 9 7 6 6 5 3 3 5 9 14 15 15 16 15 15 17 31 31 30 29 31 35 35 35 39 42 42 43 44 44 45 47 50 49 49 50 51 50
52 52 52 51 50 50 46 45 45 42 39 36 35 34 35 37 36 27 31 26 25 26 13 15 16 18 12 9 8 6 8 9 8 11 15 15 19 18 16 14 15 17 19 20 16 18 16 13 11 9 7 6 5 5 5 3 2 5 7 11 14 16 15 15 15 16 20 27 31 29 30 33 35 39 38 38 40 42 42 42 44 48 50 49 49 50 52 52
52 52 52 51 50 49 48 46 45 43 40 38 36 32 34 35 28 27 27 25 23 17 23 15 26 18 17 8 6 7 7 9 7 9 12 13 12 14 15 15 16 17 19 19 18 18 17 16 12 10 7 5 6 5 4 2 0 1 6 11 12 13 15 15 16 16 19 21 27 32 30 30 34 39 39 38 37 40 42 43 44 48 48 48 49 49 52 52
52 52 52 51 49 45 42 41 37 36 36 34 31 35 31 29 29 25 23 23 20 13 19 20 21 15 10 6 6 6 5 6 11 10 10 9 9 10 14 17 16 16 16 17 17 17 17 24 24 11 7 6 6 5 4 2 1 4 5 6 7 8 12 19 19 21 25 20 30 30 29 29 31 36 37 39 36 38 41 45 46 47 49 48 49 48 51 53
52 51 51 51 47 44 43 40 37 36 33 34 39 37 28 30 23 23 20 20 15 14 29 20 17 15 10 6 5 6 5 5 7 9 8 9 7 8 11 15 16 14 14 15 15 16 16 15 15 16 15 9 5 5 5 4 2 1 2 4 6 11 16 21 32 25 18 18 31 26 25 28 26 35 36 38 40 38 41 42 45 45 47 49 49 48 48 52
50 49 50 48 48 48 44 37 34 34 36 39 41 39 29 21 20 17 17 18 16 15 17 20 19 15 11 8 6 5 5 6 9 8 7 7 6 7 9 12 15 12 13 14 14 16 14 14 15 15 26 14 8 3 4 4 2 -1 2 7 7 13 16 13 18 20 19 16 25 20 19 17 22 35 36 37 38 39 39 42 43 43 44 46 48 47 48 51
49 48 49 49 49 47 47 45 43 43 44 44 41 37 26 23 18 13 13 15 15 21 14 20 18 18 15 11 10 10 9 10 12 10 10 9 9 7 10 11 15 14 14 14 13 15 16 16 15 14 14 20 13 3 7 4 3 -0 -0 7 14 11 12 14 18 22 24 23 19 18 19 17 29 33 36 36 36 37 38 39 43 43 44 45 47 48 47 49
49 49 47 48 47 46 45 47 46 46 45 45 38 31 24 20 20 27 12 12 13 15 15 14 14 15 18 15 14 14 13 14 13 10 12 13 12 10 9 11 14 14 14 17 13 14 15 16 16 15 13 15 13 11 7 4 2 1 -2 -2 12 15 15 14 14 16 16 25 24 18 15 24 18 24 35 36 37 37 38 38 39 44 44 45 47 48 47 47
48 48 47 45 44 44 47 47 46 45 44 39 35 31 21 17 21 15 14 13 13 14 14 15 14 14 13 17 18 18 18 15 14 11 12 16 15 14 10 11 14 15 14 11 15 16 14 16 19 17 15 15 14 15 16 9 1 -1 -3 2 3 6 20 13 23 16 23 23 17 25 21 25 21 35 38 33 34 37 38 38 40 41 43 46 48 48 47 47
47 44 44 43 43 42 42 41 46 45 41 35 32 30 24 20 14 14 14 15 15 14 12 12 13 13 12 12 17 17 19 18 14 12 13 17 17 15 14 15 14 15 14 11 16 12 14 13 15 16 16 13 14 17 16 13 4 2 -1 -3 -3 4 9 25 28 24 26 21 18 32 27 29 32 23 21 23 36 37 37 37 38 42 43 47 48 48 48 49
45 45 42 43 44 44 43 42 41 45 39 34 32 30 29 22 18 15 21 14 13 13 12 8 9 12 12 11 12 16 17 18 16 12 13 16 16 16 14 15 17 16 15 15 14 12 15 15 12 13 13 14 14 16 15 13 7 6 -2 -0 12 7 11 23 15 20 15 18 21 17 22 26 25 27 25 23 34 35 37 37 38 43 43 46 47 48 50 51
45 44 46 45 45 45 44 44 42 41 37 34 32 37 31 25 21 17 16 15 15 18 19 17 13 9 8 11 10 10 16 15 15 14 13 16 16 18 16 14 16 16 15 14 15 14 11 12 13 13 14 14 14 14 14 13 7 3 7 5 2 9 3 19 22 13 15 13 15 20 18 22 27 32 24 23 26 35 36 36 38 41 42 43 46 49 51 52
46 44 37 36 34 34 37 41 39 38 36 33 32 33 31 30 29 27 26 25 23 21 19 17 14 13 11 8 7 10 11 14 15 14 15 16 15 18 18 17 15 16 15 14 12 14 14 11 13 13 13 13 12 12 12 11 8 6 7 6 7 7 9 6 12 16 19 20 25 13 20 25 33 29 25 22 25 31 35 35 35 40 39 39 43 48 51 51
38 36 32 32 30 36 36 37 37 37 36 33 33 31 31 28 27 26 25 24 22 20 18 16 15 13 12 10 8 5 7 9 15 15 14 16 15 18 18 18 17 15 15 14 12 11 12 22 18 11 11 13 12 12 11 11 9 6 6 6 6 7 10 6 11 5 17 19 16 23 18 22 31 36 26 32 29 27 33 36 37 39 39 39 43 47 50 51
39 36 35 36 34 35 33 30 34 34 33 32 30 29 30 29 29 28 28 26 24 23 21 19 17 15 14 13 11 11 8 7 9 13 14 13 15 17 17 17 18 16 14 13 11 10 12 16 14 16 13 11 14 14 13 12 11 9 7 7 6 5 6 3 9 6 5 10 15 14 18 33 32 21 33 35 37 27 31 36 37 38 38 39 44 46 48 50
37 33 32 34 35 35 32 27 27 34 32 29 26 27 26 32 24 23 23 23 24 24 24 24 23 18 15 13 12 11 9 6 4 8 13 12 12 12 15 17 18 18 15 12 11 11 13 26 18 13 12 11 13 14 14 12 11 10 9 8 8 6 7 11 10 15 5 6 8 20 23 27 31 35 27 26 43 36 33 37 37 36 37 37 46 47 49 50
35 32 35 36 36 34 32 28 29 30 30 31 31 29 29 27 24 23 22 21 18 19 22 23 23 23 22 17 14 11 9 6 4 2 5 11 12 11 11 13 17 18 18 16 12 13 42 17 19 15 21 16 14 14 13 13 11 10 9 9 8 6 3 1 16 24 18 20 12 17 24 26 28 30 52 37 35 43 34 35 36 34 34 36 45 47 50 50
36 35 35 36 36 35 32 28 26 26 27 27 25 20 20 20 20 19 19 19 19 18 18 19 21 23 22 21 18 15 12 8 6 4 7 10 8 11 11 11 12 14 17 17 14 19 17 19 22 22 17 19 18 20 12 11 11 11 10 8 7 5 3 1 1 30 17 12 13 17 15 23 30 24 29 33 39 35 36 38 38 35 35 34 36 49 50 51
37 36 35 35 35 31 28 30 26 24 25 22 17 16 18 19 19 17 15 14 15 16 17 17 18 20 20 21 19 17 14 12 10 8 5 6 7 9 9 11 11 10 15 22 49 17 16 22 20 17 17 14 16 16 19 12 10 11 12 10 7 6 5 4 1 6 10 34 26 18 24 29 34 23 19 19 22 32 42 35 37 39 41 35 37 53 50 52
33 29 30 31 31 30 30 28 23 22 21 19 21 19 17 15 15 27 28 27 26 24 24 28 28 27 27 29 29 29 28 18 10 11 13 7 6 6 7 6 10 11 38 53 48 23 18 25 21 20 18 17 18 33 36 30 14 12 12 13 12 9 7 6 14 12 9 23 27 32 30 37 35 23 18 17 19 21 29 42 35 35 45 42 46 53 52 54
39 34 30 28 31 31 29 30 28 37 33 33 30 28 26 26 27 27 27 26 27 25 24 27 27 28 28 28 29 29 31 32 32 25 11 13 14 22 32 28 21 21 50 48 53 29 30 22 21 26 23 24 29 27 22 24 19 14 14 14 14 12 10 8 10 6 19 18 18 29 41 33 29 31 33 22 20 26 45 40 35 47 55 52 52 52 58 53
34 34 33 35 32 30 29 29 31 31 31 30 28 28 27 26 25 25 26 26 25 26 24 25 27 27 27 27 27 29 31 31 32 30 32 31 31 31 32 29 29 36 39 30 38 32 38 26 20 21 19 18 17 19 20 19 19 16 13 13 13 13 13 11 17 13 31 13 8 23 36 34 37 26 32 38 39 34 40 48 41 41 49 53 56 53 53 53
35 34 33 33 31 32 32 32 32 31 30 31 28 27 25 25 24 24 25 25 24 25 27 24 25 27 27 28 28 28 32 29 29 29 29 28 30 31 31 32 31 31 32 28 30 39 30 31 32 19 20 18 16 15 16 15 16 15 12 12 12 12 12 12 12 12 13 32 29 22 34 31 34 23 14 21 42 46 46 51 46 40 37 56 55 57 53 52
34 34 36 37 37 35 33 31 31 29 28 31 28 28 27 25 23 23 23 22 22 24 27 26 27 28 28 28 29 26 27 28 27 25 28 29 30 33 31 31 31 32 31 31 24 38 22 37 30 24 24 18 16 15 14 13 13 15 17 13 13 12 12 12 11 10 19 16 14 19 30 32 32 24 15 15 34 39 39 35 42 50 51 59 54 54 56 56
38 39 42 38 34 33 35 33 31 29 28 29 28 27 30 28 28 30 29 25 21 22 25 28 29 29 29 28 27 26 26 27 26 26 28 29 29 31 31 32 32 31 31 30 31 35 21 35 27 30 28 33 24 18 17 17 16 14 15 18 14 11 11 10 12 10 14 23 30 24 24 24 34 36 32 24 28 36 37 44 44 48 49 54 57 57 60 60
43 46 43 42 34 35 33 31 31 29 28 30 30 30 28 27 28 29 29 27 26 28 29 27 29 32 31 31 29 27 27 27 26 27 29 30 31 32 33 33 33 33 32 31 32 30 26 29 25 30 27 32 25 23 18 17 16 15 16 16 20 22 31 22 11 16 13 10 13 23 25 30 27 36 24 27 16 15 30 35 40 42 43 38 45 53 58 60